<?xml version='1.0' encoding='UTF-8'?>
<gpx xmlns="http://www.topografix.com/GPX/1/1" creator="www.balnam.be" version="1.1" xmlns:xsi="http://www.w3.org/2001/XMLSchema-instance" xsi:schemaLocation="http://www.topografix.com/GPX/1/1 http://www.topografix.com/GPX/1/1/gpx.xsd">
<trk>
<name>hfmeg1</name>
<cmt>s</cmt>
<desc>Eugies Chemin n°1 </desc>
<link href="https://chemins.be/eugies/chemin/1"/><trkseg>
<trkpt lat="50.384997" lon="3.837672"><time>2026-05-04T16:59:27Z</time></trkpt>
<trkpt lat="50.386776" lon="3.837715"><time>2026-05-04T17:09:27Z</time></trkpt>
<trkpt lat="50.390360" lon="3.841513"><time>2026-05-04T17:19:27Z</time></trkpt>
<trkpt lat="50.394888" lon="3.842114"><time>2026-05-04T17:29:27Z</time></trkpt>
<trkpt lat="50.396407" lon="3.841428"><time>2026-05-04T17:39:27Z</time></trkpt>
</trkseg>
</trk>
<trk>
<name>hfmeg13</name>
<cmt>v</cmt>
<desc>Eugies Chemin n°13 </desc>
<link href="https://chemins.be/eugies/chemin/13"/><trkseg>
<trkpt lat="50.393357" lon="3.869381"><time>2026-05-04T16:59:27Z</time></trkpt>
<trkpt lat="50.393471" lon="3.868705"><time>2026-05-04T17:09:27Z</time></trkpt>
</trkseg>
</trk>
<trk>
<name>hfmeg19</name>
<cmt>v</cmt>
<desc>Eugies Chemin n°19 </desc>
<link href="https://chemins.be/eugies/chemin/19"/><trkseg>
<trkpt lat="50.395397" lon="3.869251"><time>2026-05-04T16:59:27Z</time></trkpt>
<trkpt lat="50.395526" lon="3.869498"><time>2026-05-04T17:09:27Z</time></trkpt>
<trkpt lat="50.395551" lon="3.869711"><time>2026-05-04T17:19:27Z</time></trkpt>
</trkseg>
</trk>
<trk>
<name>hfmeg2</name>
<cmt>v</cmt>
<desc>Eugies Chemin n°2 Chemin de l'Étang / Rue Haute</desc>
<link href="https://chemins.be/eugies/chemin/2"/><trkseg>
<trkpt lat="50.388760" lon="3.902108"><time>2026-05-04T16:59:27Z</time></trkpt>
<trkpt lat="50.388502" lon="3.900611"><time>2026-05-04T17:09:27Z</time></trkpt>
<trkpt lat="50.388739" lon="3.897464"><time>2026-05-04T17:19:27Z</time></trkpt>
<trkpt lat="50.388210" lon="3.895118"><time>2026-05-04T17:29:27Z</time></trkpt>
<trkpt lat="50.389414" lon="3.893716"><time>2026-05-04T17:39:27Z</time></trkpt>
<trkpt lat="50.389656" lon="3.891524"><time>2026-05-04T17:49:27Z</time></trkpt>
</trkseg></trk>
<trk>
<name>hfmeg2</name>
<cmt>r</cmt>
<desc>Eugies Chemin n°2 Chemin de l'Étang / Rue Haute</desc>
<link href="https://chemins.be/eugies/chemin/2"/><trkseg>
<trkpt lat="50.389656" lon="3.891524"><time>2026-05-04T17:49:27Z</time></trkpt>
<trkpt lat="50.389592" lon="3.889621"><time>2026-05-04T17:59:27Z</time></trkpt>
<trkpt lat="50.390312" lon="3.887848"><time>2026-05-04T18:09:27Z</time></trkpt>
<trkpt lat="50.390520" lon="3.887352"><time>2026-05-04T18:19:27Z</time></trkpt>
<trkpt lat="50.390269" lon="3.886966"><time>2026-05-04T18:29:27Z</time></trkpt>
<trkpt lat="50.390205" lon="3.886501"><time>2026-05-04T18:39:27Z</time></trkpt>
<trkpt lat="50.390497" lon="3.885707"><time>2026-05-04T18:49:27Z</time></trkpt>
<trkpt lat="50.390597" lon="3.884956"><time>2026-05-04T18:59:27Z</time></trkpt>
<trkpt lat="50.388559" lon="3.880557"><time>2026-05-04T19:09:27Z</time></trkpt>
<trkpt lat="50.387081" lon="3.877828"><time>2026-05-04T19:19:27Z</time></trkpt>
<trkpt lat="50.386935" lon="3.877560"><time>2026-05-04T19:29:27Z</time></trkpt>
</trkseg></trk>
<trk>
<name>hfmeg2</name>
<cmt>v</cmt>
<desc>Eugies Chemin n°2 Chemin de l'Étang / Rue Haute</desc>
<link href="https://chemins.be/eugies/chemin/2"/><trkseg>
<trkpt lat="50.386935" lon="3.877560"><time>2026-05-04T19:29:27Z</time></trkpt>
<trkpt lat="50.384052" lon="3.873740"><time>2026-05-04T19:39:27Z</time></trkpt>
<trkpt lat="50.382097" lon="3.868473"><time>2026-05-04T19:49:27Z</time></trkpt>
<trkpt lat="50.381454" lon="3.867496"><time>2026-05-04T19:59:27Z</time></trkpt>
</trkseg>
</trk>
<trk>
<name>hfmeg22</name>
<cmt>r</cmt>
<desc>Eugies Chemin n°22 Rue Jean Baptiste Descamps</desc>
<link href="https://chemins.be/eugies/chemin/22"/><trkseg>
<trkpt lat="50.391481" lon="3.883028"><time>2026-05-04T16:59:27Z</time></trkpt>
<trkpt lat="50.392672" lon="3.883860"><time>2026-05-04T17:09:27Z</time></trkpt>
</trkseg></trk>
<trk>
<name>hfmeg22</name>
<cmt>v</cmt>
<desc>Eugies Chemin n°22 Rue Jean Baptiste Descamps</desc>
<link href="https://chemins.be/eugies/chemin/22"/><trkseg>
<trkpt lat="50.392672" lon="3.883860"><time>2026-05-04T17:09:27Z</time></trkpt>
<trkpt lat="50.393979" lon="3.884761"><time>2026-05-04T17:19:27Z</time></trkpt>
<trkpt lat="50.395759" lon="3.886824"><time>2026-05-04T17:29:27Z</time></trkpt>
</trkseg>
</trk>
<trk>
<name>hfmeg23</name>
<cmt>v</cmt>
<desc>Eugies Chemin n°23 </desc>
<link href="https://chemins.be/eugies/chemin/23"/><trkseg>
<trkpt lat="50.384778" lon="3.878208"><time>2026-05-04T16:59:27Z</time></trkpt>
<trkpt lat="50.383339" lon="3.877976"><time>2026-05-04T17:09:27Z</time></trkpt>
<trkpt lat="50.382704" lon="3.878114"><time>2026-05-04T17:19:27Z</time></trkpt>
</trkseg>
</trk>
<trk>
<name>hfmeg24</name>
<cmt>v</cmt>
<desc>Eugies Chemin n°24 Rue du Temple</desc>
<link href="https://chemins.be/eugies/chemin/24"/><trkseg>
<trkpt lat="50.392087" lon="3.894653"><time>2026-05-04T16:59:27Z</time></trkpt>
<trkpt lat="50.390275" lon="3.891296"><time>2026-05-04T17:09:27Z</time></trkpt>
<trkpt lat="50.389813" lon="3.890443"><time>2026-05-04T17:19:27Z</time></trkpt>
<trkpt lat="50.389512" lon="3.889503"><time>2026-05-04T17:29:27Z</time></trkpt>
<trkpt lat="50.386563" lon="3.887185"><time>2026-05-04T17:39:27Z</time></trkpt>
<trkpt lat="50.385809" lon="3.887474"><time>2026-05-04T17:49:27Z</time></trkpt>
<trkpt lat="50.384595" lon="3.887317"><time>2026-05-04T17:59:27Z</time></trkpt>
</trkseg>
</trk>
<trk>
<name>hfmeg25</name>
<cmt>r</cmt>
<desc>Eugies Chemin n°25 Rue de la Taillette</desc>
<link href="https://chemins.be/eugies/chemin/25"/><trkseg>
<trkpt lat="50.388701" lon="3.866242"><time>2026-05-04T16:59:27Z</time></trkpt>
<trkpt lat="50.388377" lon="3.866685"><time>2026-05-04T17:09:27Z</time></trkpt>
<trkpt lat="50.387953" lon="3.866857"><time>2026-05-04T17:19:27Z</time></trkpt>
<trkpt lat="50.387310" lon="3.866435"><time>2026-05-04T17:29:27Z</time></trkpt>
</trkseg>
</trk>
<trk>
<name>hfmeg26</name>
<cmt>r</cmt>
<desc>Eugies Chemin n°26 Rue de la Forêt</desc>
<link href="https://chemins.be/eugies/chemin/26"/><trkseg>
<trkpt lat="50.388643" lon="3.867033"><time>2026-05-04T16:59:27Z</time></trkpt>
<trkpt lat="50.387972" lon="3.868635"><time>2026-05-04T17:09:27Z</time></trkpt>
</trkseg>
</trk>
<trk>
<name>hfmeg27</name>
<cmt>r</cmt>
<desc>Eugies Chemin n°27 Rue Zesse</desc>
<link href="https://chemins.be/eugies/chemin/27"/><trkseg>
<trkpt lat="50.388893" lon="3.867866"><time>2026-05-04T16:59:27Z</time></trkpt>
<trkpt lat="50.388576" lon="3.868263"><time>2026-05-04T17:09:27Z</time></trkpt>
<trkpt lat="50.388444" lon="3.868585"><time>2026-05-04T17:19:27Z</time></trkpt>
</trkseg>
</trk>
<trk>
<name>hfmeg28</name>
<cmt>v</cmt>
<desc>Eugies Sentier n°28 Rue de la Taillette / Allée de Blaugies</desc>
<link href="https://chemins.be/eugies/sentier/28"/><trkseg>
<trkpt lat="50.387296" lon="3.866406"><time>2026-05-04T16:59:27Z</time></trkpt>
<trkpt lat="50.384204" lon="3.863600"><time>2026-05-04T17:09:27Z</time></trkpt>
<trkpt lat="50.383700" lon="3.862653"><time>2026-05-04T17:19:27Z</time></trkpt>
<trkpt lat="50.380158" lon="3.855918"><time>2026-05-04T17:29:27Z</time></trkpt>
</trkseg></trk>
<trk>
<name>hfmeg28</name>
<cmt>d</cmt>
<desc>Eugies Sentier n°28 Rue de la Taillette / Allée de Blaugies</desc>
<link href="https://chemins.be/eugies/sentier/28"/><trkseg>
<trkpt lat="50.380158" lon="3.855918"><time>2026-05-04T17:29:27Z</time></trkpt>
<trkpt lat="50.379344" lon="3.855664"><time>2026-05-04T17:39:27Z</time></trkpt>
<trkpt lat="50.376520" lon="3.856472"><time>2026-05-04T17:49:27Z</time></trkpt>
<trkpt lat="50.372048" lon="3.852813"><time>2026-05-04T17:59:27Z</time></trkpt>
</trkseg></trk>
<trk>
<name>hfmeg28</name>
<cmt>v</cmt>
<desc>Eugies Sentier n°28 Rue de la Taillette / Allée de Blaugies</desc>
<link href="https://chemins.be/eugies/sentier/28"/><trkseg>
<trkpt lat="50.372048" lon="3.852813"><time>2026-05-04T17:59:27Z</time></trkpt>
<trkpt lat="50.369842" lon="3.847650"><time>2026-05-04T18:09:27Z</time></trkpt>
</trkseg>
</trk>
<trk>
<name>hfmeg29</name>
<cmt>v</cmt>
<desc>Eugies Sentier n°29 </desc>
<link href="https://chemins.be/eugies/sentier/29"/><trkseg>
<trkpt lat="50.387556" lon="3.878517"><time>2026-05-04T16:59:27Z</time></trkpt>
<trkpt lat="50.387720" lon="3.878174"><time>2026-05-04T17:09:27Z</time></trkpt>
</trkseg></trk>
<trk>
<name>hfmeg29</name>
<cmt>d</cmt>
<desc>Eugies Sentier n°29 </desc>
<link href="https://chemins.be/eugies/sentier/29"/><trkseg>
<trkpt lat="50.387720" lon="3.878174"><time>2026-05-04T17:09:27Z</time></trkpt>
<trkpt lat="50.387098" lon="3.874494"><time>2026-05-04T17:19:27Z</time></trkpt>
<trkpt lat="50.385497" lon="3.871479"><time>2026-05-04T17:29:27Z</time></trkpt>
<trkpt lat="50.386277" lon="3.868690"><time>2026-05-04T17:39:27Z</time></trkpt>
<trkpt lat="50.386072" lon="3.868647"><time>2026-05-04T17:49:27Z</time></trkpt>
<trkpt lat="50.384882" lon="3.864140"><time>2026-05-04T17:59:27Z</time></trkpt>
</trkseg>
</trk>
<trk>
<name>hfmeg30</name>
<cmt>v</cmt>
<desc>Eugies Sentier n°30 Allée du Garde</desc>
<link href="https://chemins.be/eugies/sentier/30"/><trkseg>
<trkpt lat="50.372119" lon="3.852609"><time>2026-05-04T16:59:27Z</time></trkpt>
<trkpt lat="50.377352" lon="3.842464"><time>2026-05-04T17:09:27Z</time></trkpt>
</trkseg>
</trk>
<trk>
<name>hfmeg31</name>
<cmt>q</cmt>
<desc>Eugies Sentier n°31 </desc>
<link href="https://chemins.be/eugies/sentier/31"/><trkseg>
<trkpt lat="50.389677" lon="3.871983"><time>2026-05-04T16:59:27Z</time></trkpt>
<trkpt lat="50.388076" lon="3.871082"><time>2026-05-04T17:09:27Z</time></trkpt>
<trkpt lat="50.387303" lon="3.869956"><time>2026-05-04T17:19:27Z</time></trkpt>
<trkpt lat="50.386277" lon="3.868775"><time>2026-05-04T17:29:27Z</time></trkpt>
</trkseg>
</trk>
<trk>
<name>hfmeg32</name>
<cmt>v</cmt>
<desc>Eugies Sentier n°32 Rue du Centre</desc>
<link href="https://chemins.be/eugies/sentier/32"/><trkseg>
<trkpt lat="50.389666" lon="3.870376"><time>2026-05-04T16:59:27Z</time></trkpt>
<trkpt lat="50.389687" lon="3.871192"><time>2026-05-04T17:09:27Z</time></trkpt>
<trkpt lat="50.389698" lon="3.871656"><time>2026-05-04T17:19:27Z</time></trkpt>
<trkpt lat="50.389700" lon="3.872063"><time>2026-05-04T17:29:27Z</time></trkpt>
<trkpt lat="50.389684" lon="3.872429"><time>2026-05-04T17:39:27Z</time></trkpt>
<trkpt lat="50.389627" lon="3.873850"><time>2026-05-04T17:49:27Z</time></trkpt>
<trkpt lat="50.389728" lon="3.874327"><time>2026-05-04T17:59:27Z</time></trkpt>
<trkpt lat="50.389792" lon="3.874566"><time>2026-05-04T18:09:27Z</time></trkpt>
<trkpt lat="50.389865" lon="3.874846"><time>2026-05-04T18:19:27Z</time></trkpt>
<trkpt lat="50.389920" lon="3.875141"><time>2026-05-04T18:29:27Z</time></trkpt>
<trkpt lat="50.389993" lon="3.875534"><time>2026-05-04T18:39:27Z</time></trkpt>
<trkpt lat="50.389985" lon="3.875647"><time>2026-05-04T18:49:27Z</time></trkpt>
<trkpt lat="50.389986" lon="3.875801"><time>2026-05-04T18:59:27Z</time></trkpt>
<trkpt lat="50.390256" lon="3.875995"><time>2026-05-04T19:09:27Z</time></trkpt>
</trkseg></trk>
<trk>
<name>hfmeg32</name>
<cmt>r</cmt>
<desc>Eugies Sentier n°32 Rue du Centre</desc>
<link href="https://chemins.be/eugies/sentier/32"/><trkseg>
<trkpt lat="50.390256" lon="3.875995"><time>2026-05-04T19:09:27Z</time></trkpt>
<trkpt lat="50.389896" lon="3.878094"><time>2026-05-04T19:19:27Z</time></trkpt>
<trkpt lat="50.389986" lon="3.878136"><time>2026-05-04T19:29:27Z</time></trkpt>
</trkseg></trk>
<trk>
<name>hfmeg32</name>
<cmt>v</cmt>
<desc>Eugies Sentier n°32 Rue du Centre</desc>
<link href="https://chemins.be/eugies/sentier/32"/><trkseg>
<trkpt lat="50.389986" lon="3.878136"><time>2026-05-04T19:29:27Z</time></trkpt>
<trkpt lat="50.390930" lon="3.880264"><time>2026-05-04T19:39:27Z</time></trkpt>
</trkseg>
</trk>
<trk>
<name>hfmeg33</name>
<cmt>q</cmt>
<desc>Eugies Sentier n°33 </desc>
<link href="https://chemins.be/eugies/sentier/33"/><trkseg>
<trkpt lat="50.391195" lon="3.868883"><time>2026-05-04T16:59:27Z</time></trkpt>
<trkpt lat="50.389690" lon="3.871962"><time>2026-05-04T17:09:27Z</time></trkpt>
</trkseg>
</trk>
<trk>
<name>hfmeg34</name>
<cmt>q</cmt>
<desc>Eugies Sentier n°34 </desc>
<link href="https://chemins.be/eugies/sentier/34"/><trkseg>
<trkpt lat="50.388733" lon="3.885813"><time>2026-05-04T16:59:27Z</time></trkpt>
<trkpt lat="50.389923" lon="3.883764"><time>2026-05-04T17:09:27Z</time></trkpt>
<trkpt lat="50.390019" lon="3.883967"><time>2026-05-04T17:19:27Z</time></trkpt>
</trkseg></trk>
<trk>
<name>hfmeg34</name>
<cmt>v</cmt>
<desc>Eugies Sentier n°34 </desc>
<link href="https://chemins.be/eugies/sentier/34"/><trkseg>
<trkpt lat="50.390019" lon="3.883967"><time>2026-05-04T17:19:27Z</time></trkpt>
<trkpt lat="50.390686" lon="3.881897"><time>2026-05-04T17:29:27Z</time></trkpt>
<trkpt lat="50.390737" lon="3.881194"><time>2026-05-04T17:39:27Z</time></trkpt>
<trkpt lat="50.390956" lon="3.880330"><time>2026-05-04T17:49:27Z</time></trkpt>
<trkpt lat="50.391373" lon="3.878515"><time>2026-05-04T17:59:27Z</time></trkpt>
</trkseg></trk>
<trk>
<name>hfmeg34</name>
<cmt>d</cmt>
<desc>Eugies Sentier n°34 </desc>
<link href="https://chemins.be/eugies/sentier/34"/><trkseg>
<trkpt lat="50.391373" lon="3.878515"><time>2026-05-04T17:59:27Z</time></trkpt>
<trkpt lat="50.392114" lon="3.875245"><time>2026-05-04T18:09:27Z</time></trkpt>
</trkseg></trk>
<trk>
<name>hfmeg34</name>
<cmt>q</cmt>
<desc>Eugies Sentier n°34 </desc>
<link href="https://chemins.be/eugies/sentier/34"/><trkseg>
<trkpt lat="50.392114" lon="3.875245"><time>2026-05-04T18:09:27Z</time></trkpt>
<trkpt lat="50.392611" lon="3.872091"><time>2026-05-04T18:19:27Z</time></trkpt>
<trkpt lat="50.392850" lon="3.870106"><time>2026-05-04T18:29:27Z</time></trkpt>
</trkseg>
</trk>
<trk>
<name>hfmeg35</name>
<cmt>r</cmt>
<desc>Eugies Sentier n°35 Sentier Saint-Remy</desc>
<link href="https://chemins.be/eugies/sentier/35"/><trkseg>
<trkpt lat="50.394408" lon="3.871307"><time>2026-05-04T16:59:27Z</time></trkpt>
<trkpt lat="50.393691" lon="3.872809"><time>2026-05-04T17:09:27Z</time></trkpt>
<trkpt lat="50.392706" lon="3.875504"><time>2026-05-04T17:19:27Z</time></trkpt>
</trkseg></trk>
<trk>
<name>hfmeg35</name>
<cmt>v</cmt>
<desc>Eugies Sentier n°35 Sentier Saint-Remy</desc>
<link href="https://chemins.be/eugies/sentier/35"/><trkseg>
<trkpt lat="50.392706" lon="3.875504"><time>2026-05-04T17:19:27Z</time></trkpt>
<trkpt lat="50.392539" lon="3.875901"><time>2026-05-04T17:29:27Z</time></trkpt>
<trkpt lat="50.392369" lon="3.878097"><time>2026-05-04T17:39:27Z</time></trkpt>
<trkpt lat="50.392214" lon="3.879674"><time>2026-05-04T17:49:27Z</time></trkpt>
<trkpt lat="50.391918" lon="3.881983"><time>2026-05-04T17:59:27Z</time></trkpt>
<trkpt lat="50.391562" lon="3.882915"><time>2026-05-04T18:09:27Z</time></trkpt>
<trkpt lat="50.391179" lon="3.883777"><time>2026-05-04T18:19:27Z</time></trkpt>
<trkpt lat="50.391161" lon="3.883861"><time>2026-05-04T18:29:27Z</time></trkpt>
<trkpt lat="50.391153" lon="3.883974"><time>2026-05-04T18:39:27Z</time></trkpt>
<trkpt lat="50.391154" lon="3.884283"><time>2026-05-04T18:49:27Z</time></trkpt>
<trkpt lat="50.391146" lon="3.884565"><time>2026-05-04T18:59:27Z</time></trkpt>
<trkpt lat="50.391156" lon="3.884663"><time>2026-05-04T19:09:27Z</time></trkpt>
<trkpt lat="50.391129" lon="3.884846"><time>2026-05-04T19:19:27Z</time></trkpt>
<trkpt lat="50.391112" lon="3.885001"><time>2026-05-04T19:29:27Z</time></trkpt>
<trkpt lat="50.391113" lon="3.885099"><time>2026-05-04T19:39:27Z</time></trkpt>
<trkpt lat="50.391122" lon="3.885156"><time>2026-05-04T19:49:27Z</time></trkpt>
<trkpt lat="50.391122" lon="3.885240"><time>2026-05-04T19:59:27Z</time></trkpt>
<trkpt lat="50.391113" lon="3.885310"><time>2026-05-04T20:09:27Z</time></trkpt>
<trkpt lat="50.391078" lon="3.885451"><time>2026-05-04T20:19:27Z</time></trkpt>
<trkpt lat="50.390989" lon="3.885677"><time>2026-05-04T20:29:27Z</time></trkpt>
<trkpt lat="50.390891" lon="3.885931"><time>2026-05-04T20:39:27Z</time></trkpt>
<trkpt lat="50.390731" lon="3.886313"><time>2026-05-04T20:49:27Z</time></trkpt>
<trkpt lat="50.390517" lon="3.886779"><time>2026-05-04T20:59:27Z</time></trkpt>
<trkpt lat="50.390481" lon="3.886836"><time>2026-05-04T21:09:27Z</time></trkpt>
<trkpt lat="50.390410" lon="3.886907"><time>2026-05-04T21:19:27Z</time></trkpt>
<trkpt lat="50.390329" lon="3.886978"><time>2026-05-04T21:29:27Z</time></trkpt>
</trkseg>
</trk>
<trk>
<name>hfmeg36</name>
<cmt>r</cmt>
<desc>Eugies Sentier n°36 Rue Raoul Follereau</desc>
<link href="https://chemins.be/eugies/sentier/36"/><trkseg>
<trkpt lat="50.392118" lon="3.875293"><time>2026-05-04T16:59:27Z</time></trkpt>
<trkpt lat="50.392453" lon="3.875561"><time>2026-05-04T17:09:27Z</time></trkpt>
</trkseg></trk>
<trk>
<name>hfmeg36</name>
<cmt>v</cmt>
<desc>Eugies Sentier n°36 Rue Raoul Follereau</desc>
<link href="https://chemins.be/eugies/sentier/36"/><trkseg>
<trkpt lat="50.392453" lon="3.875561"><time>2026-05-04T17:09:27Z</time></trkpt>
<trkpt lat="50.392495" lon="3.875390"><time>2026-05-04T17:19:27Z</time></trkpt>
<trkpt lat="50.392693" lon="3.875518"><time>2026-05-04T17:29:27Z</time></trkpt>
</trkseg>
</trk>
<trk>
<name>hfmeg37</name>
<cmt>d</cmt>
<desc>Eugies Sentier n°37 </desc>
<link href="https://chemins.be/eugies/sentier/37"/><trkseg>
<trkpt lat="50.386694" lon="3.877133"><time>2026-05-04T16:59:27Z</time></trkpt>
<trkpt lat="50.387595" lon="3.877459"><time>2026-05-04T17:09:27Z</time></trkpt>
</trkseg></trk>
<trk>
<name>hfmeg37</name>
<cmt>s</cmt>
<desc>Eugies Sentier n°37 </desc>
<link href="https://chemins.be/eugies/sentier/37"/><trkseg>
<trkpt lat="50.387595" lon="3.877459"><time>2026-05-04T17:09:27Z</time></trkpt>
<trkpt lat="50.387905" lon="3.877659"><time>2026-05-04T17:19:27Z</time></trkpt>
<trkpt lat="50.389034" lon="3.878968"><time>2026-05-04T17:29:27Z</time></trkpt>
<trkpt lat="50.389252" lon="3.879526"><time>2026-05-04T17:39:27Z</time></trkpt>
</trkseg>
</trk>
<trk>
<name>hfmeg38</name>
<cmt>q</cmt>
<desc>Eugies Sentier n°38 Rue Jean Baptiste Descamps</desc>
<link href="https://chemins.be/eugies/sentier/38"/><trkseg>
<trkpt lat="50.394381" lon="3.882731"><time>2026-05-04T16:59:27Z</time></trkpt>
<trkpt lat="50.393527" lon="3.882963"><time>2026-05-04T17:09:27Z</time></trkpt>
</trkseg></trk>
<trk>
<name>hfmeg38</name>
<cmt>d</cmt>
<desc>Eugies Sentier n°38 Rue Jean Baptiste Descamps</desc>
<link href="https://chemins.be/eugies/sentier/38"/><trkseg>
<trkpt lat="50.393527" lon="3.882963"><time>2026-05-04T17:09:27Z</time></trkpt>
<trkpt lat="50.391886" lon="3.881998"><time>2026-05-04T17:19:27Z</time></trkpt>
</trkseg></trk>
<trk>
<name>hfmeg38</name>
<cmt>q</cmt>
<desc>Eugies Sentier n°38 Rue Jean Baptiste Descamps</desc>
<link href="https://chemins.be/eugies/sentier/38"/><trkseg>
<trkpt lat="50.391886" lon="3.881998"><time>2026-05-04T17:19:27Z</time></trkpt>
<trkpt lat="50.390999" lon="3.881435"><time>2026-05-04T17:29:27Z</time></trkpt>
</trkseg></trk>
<trk>
<name>hfmeg38</name>
<cmt>r</cmt>
<desc>Eugies Sentier n°38 Rue Jean Baptiste Descamps</desc>
<link href="https://chemins.be/eugies/sentier/38"/><trkseg>
<trkpt lat="50.390999" lon="3.881435"><time>2026-05-04T17:29:27Z</time></trkpt>
<trkpt lat="50.389259" lon="3.879530"><time>2026-05-04T17:39:27Z</time></trkpt>
</trkseg></trk>
<trk>
<name>hfmeg38</name>
<cmt>s</cmt>
<desc>Eugies Sentier n°38 Rue Jean Baptiste Descamps</desc>
<link href="https://chemins.be/eugies/sentier/38"/><trkseg>
<trkpt lat="50.389259" lon="3.879530"><time>2026-05-04T17:39:27Z</time></trkpt>
<trkpt lat="50.388507" lon="3.879107"><time>2026-05-04T17:49:27Z</time></trkpt>
<trkpt lat="50.387802" lon="3.879096"><time>2026-05-04T17:59:27Z</time></trkpt>
</trkseg>
</trk>
<trk>
<name>hfmeg39</name>
<cmt>q</cmt>
<desc>Eugies Sentier n°39 </desc>
<link href="https://chemins.be/eugies/sentier/39"/><trkseg>
<trkpt lat="50.388828" lon="3.881232"><time>2026-05-04T16:59:27Z</time></trkpt>
<trkpt lat="50.388555" lon="3.881553"><time>2026-05-04T17:09:27Z</time></trkpt>
<trkpt lat="50.388863" lon="3.882991"><time>2026-05-04T17:19:27Z</time></trkpt>
<trkpt lat="50.389417" lon="3.884708"><time>2026-05-04T17:29:27Z</time></trkpt>
</trkseg>
</trk>
<trk>
<name>hfmeg40</name>
<cmt>v</cmt>
<desc>Eugies Sentier n°40 Rue du Moulin</desc>
<link href="https://chemins.be/eugies/sentier/40"/><trkseg>
<trkpt lat="50.390217" lon="3.886373"><time>2026-05-04T16:59:27Z</time></trkpt>
<trkpt lat="50.389779" lon="3.885955"><time>2026-05-04T17:09:27Z</time></trkpt>
</trkseg></trk>
<trk>
<name>hfmeg40</name>
<cmt>b</cmt>
<desc>Eugies Sentier n°40 Rue du Moulin</desc>
<link href="https://chemins.be/eugies/sentier/40"/><trkseg>
<trkpt lat="50.389779" lon="3.885955"><time>2026-05-04T17:09:27Z</time></trkpt>
<trkpt lat="50.389228" lon="3.885043"><time>2026-05-04T17:19:27Z</time></trkpt>
</trkseg></trk>
<trk>
<name>hfmeg40</name>
<cmt>q</cmt>
<desc>Eugies Sentier n°40 Rue du Moulin</desc>
<link href="https://chemins.be/eugies/sentier/40"/><trkseg>
<trkpt lat="50.389228" lon="3.885043"><time>2026-05-04T17:19:27Z</time></trkpt>
<trkpt lat="50.388671" lon="3.884834"><time>2026-05-04T17:29:27Z</time></trkpt>
<trkpt lat="50.388305" lon="3.884367"><time>2026-05-04T17:39:27Z</time></trkpt>
<trkpt lat="50.387221" lon="3.882498"><time>2026-05-04T17:49:27Z</time></trkpt>
<trkpt lat="50.385785" lon="3.878506"><time>2026-05-04T17:59:27Z</time></trkpt>
</trkseg></trk>
<trk>
<name>hfmeg40</name>
<cmt>r</cmt>
<desc>Eugies Sentier n°40 Rue du Moulin</desc>
<link href="https://chemins.be/eugies/sentier/40"/><trkseg>
<trkpt lat="50.385785" lon="3.878506"><time>2026-05-04T17:59:27Z</time></trkpt>
<trkpt lat="50.385470" lon="3.878206"><time>2026-05-04T18:09:27Z</time></trkpt>
</trkseg></trk>
<trk>
<name>hfmeg40</name>
<cmt>q</cmt>
<desc>Eugies Sentier n°40 Rue du Moulin</desc>
<link href="https://chemins.be/eugies/sentier/40"/><trkseg>
<trkpt lat="50.385470" lon="3.878206"><time>2026-05-04T18:09:27Z</time></trkpt>
<trkpt lat="50.384882" lon="3.876725"><time>2026-05-04T18:19:27Z</time></trkpt>
<trkpt lat="50.384553" lon="3.874451"><time>2026-05-04T18:29:27Z</time></trkpt>
</trkseg>
</trk>
<trk>
<name>hfmeg41</name>
<cmt>q</cmt>
<desc>Eugies Sentier n°41 </desc>
<link href="https://chemins.be/eugies/sentier/41"/><trkseg>
<trkpt lat="50.386886" lon="3.883195"><time>2026-05-04T16:59:27Z</time></trkpt>
<trkpt lat="50.384484" lon="3.887229"><time>2026-05-04T17:09:27Z</time></trkpt>
</trkseg>
</trk>
<trk>
<name>hfmeg42</name>
<cmt>q</cmt>
<desc>Eugies Sentier n°42 </desc>
<link href="https://chemins.be/eugies/sentier/42"/><trkseg>
<trkpt lat="50.386585" lon="3.887218"><time>2026-05-04T16:59:27Z</time></trkpt>
<trkpt lat="50.385565" lon="3.885502"><time>2026-05-04T17:09:27Z</time></trkpt>
</trkseg>
</trk>
<trk>
<name>hfmeg43</name>
<cmt>v</cmt>
<desc>Eugies Sentier n°43 </desc>
<link href="https://chemins.be/eugies/sentier/43"/><trkseg>
<trkpt lat="50.388712" lon="3.888978"><time>2026-05-04T16:59:27Z</time></trkpt>
<trkpt lat="50.387590" lon="3.890727"><time>2026-05-04T17:09:27Z</time></trkpt>
<trkpt lat="50.386872" lon="3.891499"><time>2026-05-04T17:19:27Z</time></trkpt>
</trkseg></trk>
<trk>
<name>hfmeg43</name>
<cmt>q</cmt>
<desc>Eugies Sentier n°43 </desc>
<link href="https://chemins.be/eugies/sentier/43"/><trkseg>
<trkpt lat="50.386872" lon="3.891499"><time>2026-05-04T17:19:27Z</time></trkpt>
<trkpt lat="50.383930" lon="3.895082"><time>2026-05-04T17:29:27Z</time></trkpt>
<trkpt lat="50.381700" lon="3.896327"><time>2026-05-04T17:39:27Z</time></trkpt>
</trkseg>
</trk>
<trk>
<name>hfmeg44</name>
<cmt>q</cmt>
<desc>Eugies Sentier n°44 </desc>
<link href="https://chemins.be/eugies/sentier/44"/><trkseg>
<trkpt lat="50.389635" lon="3.889824"><time>2026-05-04T16:59:27Z</time></trkpt>
<trkpt lat="50.392207" lon="3.892556"><time>2026-05-04T17:09:27Z</time></trkpt>
<trkpt lat="50.393165" lon="3.892670"><time>2026-05-04T17:19:27Z</time></trkpt>
</trkseg>
</trk>
<trk>
<name>hfmeg45</name>
<cmt>v</cmt>
<desc>Eugies Sentier n°45 </desc>
<link href="https://chemins.be/eugies/sentier/45"/><trkseg>
<trkpt lat="50.387959" lon="3.868668"><time>2026-05-04T16:59:27Z</time></trkpt>
<trkpt lat="50.387737" lon="3.869285"><time>2026-05-04T17:09:27Z</time></trkpt>
<trkpt lat="50.387310" lon="3.869939"><time>2026-05-04T17:19:27Z</time></trkpt>
</trkseg>
</trk>
<trk>
<name>hfmeg46</name>
<cmt>q</cmt>
<desc>Eugies Sentier n°46 </desc>
<link href="https://chemins.be/eugies/sentier/46"/><trkseg>
<trkpt lat="50.389287" lon="3.893870"><time>2026-05-04T16:59:27Z</time></trkpt>
<trkpt lat="50.388671" lon="3.897357"><time>2026-05-04T17:09:27Z</time></trkpt>
</trkseg>
</trk>
<trk>
<name>hfmeg47</name>
<cmt>q</cmt>
<desc>Eugies Sentier n°47 Rue de Dour / Allée d'Eugies</desc>
<link href="https://chemins.be/eugies/sentier/47"/><trkseg>
<trkpt lat="50.374395" lon="3.841146"><time>2026-05-04T16:59:27Z</time></trkpt>
<trkpt lat="50.377210" lon="3.843138"><time>2026-05-04T17:09:27Z</time></trkpt>
</trkseg></trk>
<trk>
<name>hfmeg47</name>
<cmt>r</cmt>
<desc>Eugies Sentier n°47 Rue de Dour / Allée d'Eugies</desc>
<link href="https://chemins.be/eugies/sentier/47"/><trkseg>
<trkpt lat="50.377210" lon="3.843138"><time>2026-05-04T17:09:27Z</time></trkpt>
<trkpt lat="50.376907" lon="3.848674"><time>2026-05-04T17:19:27Z</time></trkpt>
</trkseg></trk>
<trk>
<name>hfmeg47</name>
<cmt>d</cmt>
<desc>Eugies Sentier n°47 Rue de Dour / Allée d'Eugies</desc>
<link href="https://chemins.be/eugies/sentier/47"/><trkseg>
<trkpt lat="50.376907" lon="3.848674"><time>2026-05-04T17:19:27Z</time></trkpt>
<trkpt lat="50.377285" lon="3.849009"><time>2026-05-04T17:29:27Z</time></trkpt>
</trkseg></trk>
<trk>
<name>hfmeg47</name>
<cmt>v</cmt>
<desc>Eugies Sentier n°47 Rue de Dour / Allée d'Eugies</desc>
<link href="https://chemins.be/eugies/sentier/47"/><trkseg>
<trkpt lat="50.377285" lon="3.849009"><time>2026-05-04T17:29:27Z</time></trkpt>
<trkpt lat="50.378753" lon="3.852213"><time>2026-05-04T17:39:27Z</time></trkpt>
<trkpt lat="50.380163" lon="3.855950"><time>2026-05-04T17:49:27Z</time></trkpt>
<trkpt lat="50.382914" lon="3.861156"><time>2026-05-04T17:59:27Z</time></trkpt>
<trkpt lat="50.386416" lon="3.861258"><time>2026-05-04T18:09:27Z</time></trkpt>
</trkseg>
</trk>
<trk>
<name>hfmeg48</name>
<cmt>q</cmt>
<desc>Eugies Sentier n°48 </desc>
<link href="https://chemins.be/eugies/sentier/48"/><trkseg>
<trkpt lat="50.375981" lon="3.838906"><time>2026-05-04T16:59:27Z</time></trkpt>
<trkpt lat="50.374832" lon="3.841464"><time>2026-05-04T17:09:27Z</time></trkpt>
</trkseg>
</trk>
<trk>
<name>hfmeg49</name>
<cmt>d</cmt>
<desc>Eugies Sentier n°49 </desc>
<link href="https://chemins.be/eugies/sentier/49"/><trkseg>
<trkpt lat="50.395112" lon="3.861515"><time>2026-05-04T16:59:27Z</time></trkpt>
<trkpt lat="50.392663" lon="3.854364"><time>2026-05-04T17:09:27Z</time></trkpt>
<trkpt lat="50.391371" lon="3.850279"><time>2026-05-04T17:19:27Z</time></trkpt>
<trkpt lat="50.388171" lon="3.842844"><time>2026-05-04T17:29:27Z</time></trkpt>
<trkpt lat="50.386890" lon="3.838501"><time>2026-05-04T17:39:27Z</time></trkpt>
<trkpt lat="50.386719" lon="3.837799"><time>2026-05-04T17:49:27Z</time></trkpt>
</trkseg>
</trk>
<trk>
<name>hfmeg51</name>
<cmt>v</cmt>
<desc>Eugies Sentier n°51 </desc>
<link href="https://chemins.be/eugies/sentier/51"/><trkseg>
<trkpt lat="50.401845" lon="3.837893"><time>2026-05-04T16:59:27Z</time></trkpt>
<trkpt lat="50.401795" lon="3.837610"><time>2026-05-04T17:09:27Z</time></trkpt>
<trkpt lat="50.401139" lon="3.836975"><time>2026-05-04T17:19:27Z</time></trkpt>
<trkpt lat="50.399760" lon="3.833851"><time>2026-05-04T17:29:27Z</time></trkpt>
</trkseg></trk>
<trk>
<name>hfmeg51</name>
<cmt>d</cmt>
<desc>Eugies Sentier n°51 </desc>
<link href="https://chemins.be/eugies/sentier/51"/><trkseg>
<trkpt lat="50.399760" lon="3.833851"><time>2026-05-04T17:29:27Z</time></trkpt>
<trkpt lat="50.398469" lon="3.831619"><time>2026-05-04T17:39:27Z</time></trkpt>
</trkseg>
</trk>
<trk>
<name>hfmeg52</name>
<cmt>q</cmt>
<desc>Eugies Sentier n°52 </desc>
<link href="https://chemins.be/eugies/sentier/52"/><trkseg>
<trkpt lat="50.386501" lon="3.861364"><time>2026-05-04T16:59:27Z</time></trkpt>
<trkpt lat="50.382098" lon="3.849618"><time>2026-05-04T17:09:27Z</time></trkpt>
<trkpt lat="50.380949" lon="3.846061"><time>2026-05-04T17:19:27Z</time></trkpt>
<trkpt lat="50.380465" lon="3.843844"><time>2026-05-04T17:29:27Z</time></trkpt>
</trkseg>
</trk>
<trk>
<name>hfmeg53</name>
<cmt>q</cmt>
<desc>Eugies Sentier n°53 </desc>
<link href="https://chemins.be/eugies/sentier/53"/><trkseg>
<trkpt lat="50.381981" lon="3.839305"><time>2026-05-04T16:59:27Z</time></trkpt>
<trkpt lat="50.382021" lon="3.840268"><time>2026-05-04T17:09:27Z</time></trkpt>
<trkpt lat="50.381018" lon="3.844313"><time>2026-05-04T17:19:27Z</time></trkpt>
<trkpt lat="50.380650" lon="3.844671"><time>2026-05-04T17:29:27Z</time></trkpt>
</trkseg>
</trk>
<trk>
<name>hfmeg6</name>
<cmt>v</cmt>
<desc>Eugies Chemin n°6 </desc>
<link href="https://chemins.be/eugies/chemin/6"/><trkseg>
<trkpt lat="50.388069" lon="3.894975"><time>2026-05-04T16:59:27Z</time></trkpt>
<trkpt lat="50.386742" lon="3.891306"><time>2026-05-04T17:09:27Z</time></trkpt>
<trkpt lat="50.385607" lon="3.888774"><time>2026-05-04T17:19:27Z</time></trkpt>
<trkpt lat="50.384471" lon="3.887186"><time>2026-05-04T17:29:27Z</time></trkpt>
</trkseg>
</trk>
<trk>
<name>hfmeg8</name>
<cmt>v</cmt>
<desc>Eugies Chemin n°8 </desc>
<link href="https://chemins.be/eugies/chemin/8"/><trkseg>
<trkpt lat="50.392748" lon="3.867855"><time>2026-05-04T16:59:27Z</time></trkpt>
<trkpt lat="50.392812" lon="3.868065"><time>2026-05-04T17:09:27Z</time></trkpt>
<trkpt lat="50.392904" lon="3.868641"><time>2026-05-04T17:19:27Z</time></trkpt>
<trkpt lat="50.392941" lon="3.868795"><time>2026-05-04T17:29:27Z</time></trkpt>
<trkpt lat="50.393086" lon="3.869047"><time>2026-05-04T17:39:27Z</time></trkpt>
<trkpt lat="50.393275" lon="3.869298"><time>2026-05-04T17:49:27Z</time></trkpt>
</trkseg>
</trk>
<trk>
<name>hfmeg9</name>
<cmt>s</cmt>
<desc>Eugies Chemin n°9 </desc>
<link href="https://chemins.be/eugies/chemin/9"/><trkseg>
<trkpt lat="50.396237" lon="3.873091"><time>2026-05-04T16:59:27Z</time></trkpt>
<trkpt lat="50.396282" lon="3.872544"><time>2026-05-04T17:09:27Z</time></trkpt>
</trkseg>
</trk>
<trk>
<name>hfmegi1</name>
<cmt>v</cmt>
<desc>Eugies Chemin n°i1 Allée Degorge</desc>
<link href="https://chemins.be/eugies/chemin/i1"/><trkseg>
<trkpt lat="50.393857" lon="3.836311"><time>2026-05-04T16:59:27Z</time></trkpt>
<trkpt lat="50.389817" lon="3.839394"><time>2026-05-04T17:09:27Z</time></trkpt>
<trkpt lat="50.389360" lon="3.839708"><time>2026-05-04T17:19:27Z</time></trkpt>
<trkpt lat="50.387487" lon="3.841149"><time>2026-05-04T17:29:27Z</time></trkpt>
<trkpt lat="50.386976" lon="3.841493"><time>2026-05-04T17:39:27Z</time></trkpt>
<trkpt lat="50.386421" lon="3.841977"><time>2026-05-04T17:49:27Z</time></trkpt>
<trkpt lat="50.386134" lon="3.842163"><time>2026-05-04T17:59:27Z</time></trkpt>
<trkpt lat="50.385363" lon="3.842706"><time>2026-05-04T18:09:27Z</time></trkpt>
<trkpt lat="50.381932" lon="3.845373"><time>2026-05-04T18:19:27Z</time></trkpt>
<trkpt lat="50.381260" lon="3.845816"><time>2026-05-04T18:29:27Z</time></trkpt>
<trkpt lat="50.380408" lon="3.846430"><time>2026-05-04T18:39:27Z</time></trkpt>
<trkpt lat="50.379602" lon="3.847072"><time>2026-05-04T18:49:27Z</time></trkpt>
<trkpt lat="50.377126" lon="3.848921"><time>2026-05-04T18:59:27Z</time></trkpt>
<trkpt lat="50.374238" lon="3.851133"><time>2026-05-04T19:09:27Z</time></trkpt>
<trkpt lat="50.372108" lon="3.852764"><time>2026-05-04T19:19:27Z</time></trkpt>
</trkseg>
</trk>
<trk>
<name>hfmegi10</name>
<cmt>v</cmt>
<desc>Eugies Chemin n°i10 </desc>
<link href="https://chemins.be/eugies/chemin/i10"/><trkseg>
<trkpt lat="50.396126" lon="3.851132"><time>2026-05-04T16:59:27Z</time></trkpt>
<trkpt lat="50.395564" lon="3.851309"><time>2026-05-04T17:09:27Z</time></trkpt>
</trkseg>
</trk>
<trk>
<name>hfmegi11</name>
<cmt>v</cmt>
<desc>Eugies Chemin n°i11 </desc>
<link href="https://chemins.be/eugies/chemin/i11"/><trkseg>
<trkpt lat="50.399166" lon="3.835002"><time>2026-05-04T16:59:27Z</time></trkpt>
<trkpt lat="50.398881" lon="3.834537"><time>2026-05-04T17:09:27Z</time></trkpt>
<trkpt lat="50.397757" lon="3.833835"><time>2026-05-04T17:19:27Z</time></trkpt>
<trkpt lat="50.396871" lon="3.833982"><time>2026-05-04T17:29:27Z</time></trkpt>
<trkpt lat="50.395422" lon="3.832834"><time>2026-05-04T17:39:27Z</time></trkpt>
<trkpt lat="50.394474" lon="3.830001"><time>2026-05-04T17:49:27Z</time></trkpt>
</trkseg>
</trk>
<trk>
<name>hfmegi12</name>
<cmt>v</cmt>
<desc>Eugies Sentier n°i12 </desc>
<link href="https://chemins.be/eugies/sentier/i12"/><trkseg>
<trkpt lat="50.377443" lon="3.842370"><time>2026-05-04T16:59:27Z</time></trkpt>
<trkpt lat="50.377832" lon="3.843511"><time>2026-05-04T17:09:27Z</time></trkpt>
<trkpt lat="50.380043" lon="3.846678"><time>2026-05-04T17:19:27Z</time></trkpt>
</trkseg>
</trk>
<trk>
<name>hfmegi2</name>
<cmt>v</cmt>
<desc>Eugies Chemin n°i2 Allée Centrale</desc>
<link href="https://chemins.be/eugies/chemin/i2"/><trkseg>
<trkpt lat="50.377317" lon="3.848854"><time>2026-05-04T16:59:27Z</time></trkpt>
<trkpt lat="50.377443" lon="3.848853"><time>2026-05-04T17:09:27Z</time></trkpt>
<trkpt lat="50.380179" lon="3.849343"><time>2026-05-04T17:19:27Z</time></trkpt>
<trkpt lat="50.384758" lon="3.849968"><time>2026-05-04T17:29:27Z</time></trkpt>
<trkpt lat="50.390284" lon="3.850772"><time>2026-05-04T17:39:27Z</time></trkpt>
<trkpt lat="50.396426" lon="3.847146"><time>2026-05-04T17:49:27Z</time></trkpt>
</trkseg>
</trk>
<trk>
<name>hfmegi3</name>
<cmt>v</cmt>
<desc>Eugies Sentier n°i3 </desc>
<link href="https://chemins.be/eugies/sentier/i3"/><trkseg>
<trkpt lat="50.399850" lon="3.833975"><time>2026-05-04T16:59:27Z</time></trkpt>
<trkpt lat="50.399763" lon="3.832096"><time>2026-05-04T17:09:27Z</time></trkpt>
</trkseg>
</trk>
<trk>
<name>hfmegi4</name>
<cmt>v</cmt>
<desc>Eugies Chemin n°i4 Allée du Bois de Saint-Ghislain</desc>
<link href="https://chemins.be/eugies/chemin/i4"/><trkseg>
<trkpt lat="50.396290" lon="3.841347"><time>2026-05-04T16:59:27Z</time></trkpt>
<trkpt lat="50.393875" lon="3.836325"><time>2026-05-04T17:09:27Z</time></trkpt>
<trkpt lat="50.392069" lon="3.832689"><time>2026-05-04T17:19:27Z</time></trkpt>
</trkseg>
</trk>
<trk>
<name>hfmegi5</name>
<cmt>v</cmt>
<desc>Eugies Sentier n°i5 </desc>
<link href="https://chemins.be/eugies/sentier/i5"/><trkseg>
<trkpt lat="50.385527" lon="3.838102"><time>2026-05-04T16:59:27Z</time></trkpt>
<trkpt lat="50.385247" lon="3.842769"><time>2026-05-04T17:09:27Z</time></trkpt>
</trkseg>
</trk>
<trk>
<name>hfmegi6</name>
<cmt>v</cmt>
<desc>Eugies Chemin n°i6 </desc>
<link href="https://chemins.be/eugies/chemin/i6"/><trkseg>
<trkpt lat="50.395107" lon="3.861539"><time>2026-05-04T16:59:27Z</time></trkpt>
<trkpt lat="50.394844" lon="3.861371"><time>2026-05-04T17:09:27Z</time></trkpt>
<trkpt lat="50.394587" lon="3.861389"><time>2026-05-04T17:19:27Z</time></trkpt>
<trkpt lat="50.393209" lon="3.862156"><time>2026-05-04T17:29:27Z</time></trkpt>
</trkseg>
</trk>
<trk>
<name>hfmegi7</name>
<cmt>v</cmt>
<desc>Eugies Chemin n°i7 Allée de la Belle Maison / Allée de Colfontaine</desc>
<link href="https://chemins.be/eugies/chemin/i7"/><trkseg>
<trkpt lat="50.395115" lon="3.861530"><time>2026-05-04T16:59:27Z</time></trkpt>
<trkpt lat="50.394866" lon="3.861136"><time>2026-05-04T17:09:27Z</time></trkpt>
<trkpt lat="50.390299" lon="3.850845"><time>2026-05-04T17:19:27Z</time></trkpt>
<trkpt lat="50.389117" lon="3.847944"><time>2026-05-04T17:29:27Z</time></trkpt>
<trkpt lat="50.388953" lon="3.845970"><time>2026-05-04T17:39:27Z</time></trkpt>
<trkpt lat="50.389390" lon="3.839378"><time>2026-05-04T17:49:27Z</time></trkpt>
</trkseg>
</trk>
<trk>
<name>hfmegi8</name>
<cmt>v</cmt>
<desc>Eugies Chemin n°i8 </desc>
<link href="https://chemins.be/eugies/chemin/i8"/><trkseg>
<trkpt lat="50.394853" lon="3.861394"><time>2026-05-04T16:59:27Z</time></trkpt>
<trkpt lat="50.395530" lon="3.851277"><time>2026-05-04T17:09:27Z</time></trkpt>
<trkpt lat="50.395763" lon="3.848026"><time>2026-05-04T17:19:27Z</time></trkpt>
<trkpt lat="50.395647" lon="3.847564"><time>2026-05-04T17:29:27Z</time></trkpt>
</trkseg>
</trk>
<trk>
<name>hfmegi9</name>
<cmt>v</cmt>
<desc>Eugies Chemin n°i9 </desc>
<link href="https://chemins.be/eugies/chemin/i9"/><trkseg>
<trkpt lat="50.395240" lon="3.861614"><time>2026-05-04T16:59:27Z</time></trkpt>
<trkpt lat="50.395921" lon="3.856405"><time>2026-05-04T17:09:27Z</time></trkpt>
<trkpt lat="50.396010" lon="3.854361"><time>2026-05-04T17:19:27Z</time></trkpt>
<trkpt lat="50.396020" lon="3.851432"><time>2026-05-04T17:29:27Z</time></trkpt>
<trkpt lat="50.396133" lon="3.851137"><time>2026-05-04T17:39:27Z</time></trkpt>
</trkseg>
</trk>
</gpx>